To NAV CANADA Home Page Login to a new session Search on AWWS site Feedback and Comments Disclaimer Vers la page française équivalente Tips FAQ What's new on the site To the Forecasts and Observations / NOTAM section To "File a Flight Plan" website Publications and other links Update of the User's profile FIC Telephone Numbers My Weather Data Folder Route Weather Data Regional Weather Data Local Weather Data To the Forecasts and Observations / NOTAM section
Request Generated 07/30/2015 at 08:10:23 UTC . Weather information available at that time is displayed.

METAR/TAF

SANIKILUAQ/NU    

LWIS CYSK 300800Z AUTO 15023KT 16/15 A2923=
LWIS CYSK 300700Z AUTO 14019G24KT 19/16 A2927=
LWIS CYSK 300600Z AUTO 13015KT 17/16 A2929=

CYSK - No TAF is issued for this station

Your time UTC time
Weather data provided by Environment Canada and NAV CANADA